Location: Warwick
(41.7000°N, 71.4170°W)
Time: 11:04:51
(UTC-04:00)

BREEZE-M DEB (TANK) - Visible Passes

Search period start: 23 July 2016 00:00
Search period end: 02 August 2016 00:00
Orbit: 290 x 15897 km, 49.5° (Epoch: 21 July)

Date Brightness Start Highest point End Pass type
(mag) Time Alt. Az. Time Alt. Az. Time Alt. Az.
23 Jul 8.6 21:44:54 10° NW 23:15:00 64° WSW 00:47:25 28° SSW visible
24 Jul 8.6 21:49:30 10° NW 23:18:38 62° WSW 00:51:17 27° SSW visible
25 Jul 8.6 21:54:06 10° NW 23:22:08 59° WSW 00:55:14 26° SSW visible
26 Jul 8.7 21:58:43 10° NW 23:25:31 57° W 00:59:16 24° SSW visible
27 Jul 8.7 22:03:19 10° NW 23:28:49 55° W 01:03:23 22° SSW visible
28 Jul 8.7 22:07:56 10° NW 23:32:01 53° W 01:07:34 21° SSW visible
29 Jul 8.8 22:12:34 10° NW 23:35:07 50° W 01:11:50 19° SSW visible
30 Jul 8.8 22:17:13 10° NW 23:38:10 48° W 01:16:10 17° SSW visible
31 Jul 8.8 22:21:52 10° NW 23:41:09 46° W 01:20:33 15° SW visible
01 Aug 8.8 17:11:16 10° W 17:49:24 78° NNE 20:30:21 10° SE visible
